Weather History for Hulett, WY

Change the Weather History Date:

Tuesday, December 10, 2013

  Actual Average (KEFC) Record (KEFC)
Temperature  
Mean Temperature 16 °F -  
Max Temperature 26 °F 41 °F 65 °F (1990)
Min Temperature 5 °F 15 °F -20 °F (1972)
Degree Days  
Heating Degree Days 50    
Moisture  
Dew Point 13 °F    
Average Humidity 79    
Maximum Humidity 93    
Minimum Humidity 59    
Precipitation  
Precipitation 0.00 in - - ()
Sea Level Pressure  
Sea Level Pressure 30.00 in    
Wind  
Wind Speed 10 mph (WSW)    
Max Wind Speed 15 mph    
Max Gust Speed 23 mph    
Visibility 5 miles    
Events Snow    
Averages and records for this station are not official NWS values.
T = Trace of Precipitation, MM = Missing Value Source: NWS Daily Summary

Daily Weather History Graph

Daily Weather History Graph

Search for Another Location

Airport:

Trip Planner

Search our weather history database for the weather conditions in past years. The results will help you decide how hot, cold, wet, or windy it might be!

Date:

Astronomy

Dec. 10, 2013 Rise Set
Actual Time 7:24 AM MST 4:17 PM MST
Civil Twilight 6:51 AM MST 4:51 PM MST
Nautical Twilight 6:14 AM MST 5:28 PM MST
Astronomical Twilight 5:38 AM MST 6:03 PM MST
Moon 12:33 PM MST (12/10) 12:31 AM MST (12/10)
Length of Visible Light 9h 59m
Length of Day
8h 53m
Waxing Gibbous, 62% of the Moon is Illuminated
Dec 10
Waxing Gibbous
Dec 17
Full
Dec 25
Last Quarter
Jan 1
New
Jan 7
First Quarter

Hourly Weather History & Observations

Time (MST) Temp. Windchill Dew Point Humidity Pressure Visibility Wind Dir Wind Speed Gust Speed Precip Events Conditions
12:15 AM 14.0 °F 5.1 °F 12.2 °F 93% 29.93 in 10.0 mi South 5.8 mph - N/A   Overcast
12:35 AM 17.6 °F 8.2 °F 14.0 °F 86% 29.93 in 10.0 mi South 6.9 mph - N/A   Overcast
12:55 AM 17.6 °F 6.4 °F 14.0 °F 86% 29.92 in 10.0 mi SW 9.2 mph - N/A   Overcast
1:15 AM 17.6 °F 5.0 °F 14.0 °F 86% 29.92 in 10.0 mi SSW 11.5 mph - N/A   Mostly Cloudy
1:35 AM 17.6 °F 4.3 °F 14.0 °F 86% 29.91 in 10.0 mi SSW 12.7 mph - N/A   Scattered Clouds
1:55 AM 19.4 °F 7.2 °F 14.0 °F 80% 29.91 in 10.0 mi SW 11.5 mph - N/A   Clear
2:15 AM 19.4 °F 8.6 °F 12.2 °F 74% 29.91 in 10.0 mi SW 9.2 mph - N/A   Clear
2:35 AM 19.4 °F 6.0 °F 12.2 °F 74% 29.90 in 10.0 mi SSW 13.8 mph - N/A   Clear
2:55 AM 19.4 °F 6.6 °F 12.2 °F 74% 29.90 in 10.0 mi SSW 12.7 mph - N/A   Clear
3:15 AM 21.2 °F 11.7 °F 12.2 °F 68% 29.89 in 10.0 mi SW 8.1 mph - N/A   Mostly Cloudy
3:35 AM 21.2 °F 7.8 °F 14.0 °F 74% 29.88 in 10.0 mi SSW 15.0 mph - N/A   Overcast
3:55 AM 21.2 °F 8.3 °F 14.0 °F 74% 29.88 in 10.0 mi SSW 13.8 mph - N/A   Mostly Cloudy
4:15 AM 21.2 °F 8.3 °F 12.2 °F 68% 29.87 in 10.0 mi SSW 13.8 mph 19.6 mph N/A   Mostly Cloudy
4:35 AM 23.0 °F 10.1 °F 12.2 °F 63% 29.87 in 10.0 mi SSW 15.0 mph 18.4 mph N/A   Overcast
4:55 AM 23.0 °F 12.4 °F 10.4 °F 59% 29.86 in 10.0 mi SW 10.4 mph - N/A   Overcast
5:15 AM 23.0 °F 12.4 °F 10.4 °F 59% 29.85 in 10.0 mi SW 10.4 mph - N/A   Overcast
5:35 AM 23.0 °F 11.7 °F 10.4 °F 59% 29.84 in 10.0 mi SW 11.5 mph 18.4 mph N/A   Overcast
5:55 AM 23.0 °F 11.7 °F 10.4 °F 59% 29.84 in 10.0 mi SW 11.5 mph - N/A   Overcast
6:15 AM 23.0 °F 10.6 °F 10.4 °F 59% 29.83 in 10.0 mi SSW 13.8 mph - N/A   Overcast
6:35 AM 23.0 °F 11.7 °F 10.4 °F 59% 29.83 in 10.0 mi SW 11.5 mph - N/A   Overcast
6:55 AM 23.0 °F 12.4 °F 10.4 °F 59% 29.84 in 10.0 mi SW 10.4 mph - N/A   Overcast
7:15 AM 23.0 °F 11.1 °F 10.4 °F 59% 29.84 in 10.0 mi SW 12.7 mph 18.4 mph N/A   Overcast
7:35 AM 23.0 °F 10.1 °F 10.4 °F 59% 29.85 in 10.0 mi SW 15.0 mph 19.6 mph N/A   Overcast
7:55 AM 23.0 °F 11.7 °F 10.4 °F 59% 29.86 in 10.0 mi SW 11.5 mph - N/A   Overcast
8:15 AM 23.0 °F 11.7 °F 10.4 °F 59% 29.87 in 10.0 mi SW 11.5 mph - N/A   Overcast
8:35 AM 23.0 °F 11.7 °F 12.2 °F 63% 29.88 in 7.0 mi SW 11.5 mph 17.3 mph N/A Snow Light Snow
8:55 AM 21.2 °F 9.5 °F 17.6 °F 86% 29.88 in 1.2 mi SW 11.5 mph - N/A Snow Light Snow
9:15 AM 23.0 °F 11.7 °F 19.4 °F 86% 29.88 in 0.8 mi SW 11.5 mph - N/A Snow Light Snow
9:35 AM 23.0 °F 12.4 °F 19.4 °F 86% 29.89 in 0.5 mi SW 10.4 mph - N/A Snow Snow
9:55 AM 23.0 °F 12.4 °F 19.4 °F 86% 29.89 in 0.8 mi SW 10.4 mph - N/A Snow Snow
10:15 AM 24.8 °F 13.4 °F 21.2 °F 86% 29.90 in 0.8 mi WSW 12.7 mph 18.4 mph N/A Snow Light Snow
10:35 AM 24.8 °F 14.0 °F 21.2 °F 86% 29.90 in 0.8 mi WSW 11.5 mph 18.4 mph N/A Snow Light Snow
10:55 AM 24.8 °F 14.0 °F 21.2 °F 86% 29.91 in 0.5 mi West 11.5 mph 16.1 mph N/A Snow Light Snow
11:15 AM 26.6 °F 17.5 °F 21.2 °F 80% 29.91 in 1.5 mi West 9.2 mph 17.3 mph N/A Snow Light Snow
11:35 AM 26.6 °F 16.8 °F 21.2 °F 80% 29.91 in 2.0 mi WSW 10.4 mph - N/A Snow Light Snow
11:55 AM 26.6 °F 16.8 °F 21.2 °F 80% 29.91 in 1.8 mi WSW 10.4 mph - N/A Snow Light Snow
12:15 PM 26.6 °F 17.5 °F 23.0 °F 86% 29.91 in 1.5 mi West 9.2 mph - N/A Snow Light Snow
12:35 PM 26.6 °F 17.5 °F 21.2 °F 80% 29.91 in 4.0 mi West 9.2 mph 20.7 mph N/A   Overcast
12:55 PM 26.6 °F 16.2 °F 21.2 °F 80% 29.92 in 2.0 mi West 11.5 mph - N/A Snow Light Snow
1:15 PM 26.6 °F 16.2 °F 21.2 °F 80% 29.93 in 1.0 mi West 11.5 mph 17.3 mph N/A Snow Light Snow
1:35 PM 26.6 °F 14.7 °F 21.2 °F 80% 29.94 in 2.5 mi NNW 15.0 mph 19.6 mph N/A Snow Light Snow
1:55 PM 24.8 °F 13.4 °F 21.2 °F 86% 29.95 in 2.0 mi NNW 12.7 mph - N/A Snow Light Snow
2:15 PM 23.0 °F 13.1 °F 19.4 °F 86% 29.97 in 3.0 mi North 9.2 mph - N/A Snow Light Snow
2:35 PM 21.2 °F 8.9 °F 17.6 °F 86% 30.00 in 1.0 mi North 12.7 mph 23.0 mph N/A Snow Light Snow
2:55 PM 21.2 °F 8.3 °F 17.6 °F 86% 30.01 in 1.2 mi NNW 13.8 mph - N/A Snow Light Snow
3:15 PM 19.4 °F 6.0 °F 15.8 °F 86% 30.03 in 3.0 mi North 13.8 mph 18.4 mph N/A Snow Light Snow
3:35 PM 19.4 °F 9.5 °F 15.8 °F 86% 30.05 in 2.5 mi North 8.1 mph - N/A Snow Light Snow
3:55 PM 19.4 °F 7.9 °F 15.8 °F 86% 30.06 in 2.0 mi North 10.4 mph - N/A Snow Light Snow
4:15 PM 17.6 °F 7.3 °F 14.0 °F 86% 30.08 in 2.0 mi North 8.1 mph - N/A Snow Light Snow
4:35 PM 17.6 °F 10.7 °F 14.0 °F 86% 30.10 in 1.8 mi NNW 4.6 mph - N/A Snow Light Snow
4:55 PM 17.6 °F 6.4 °F 14.0 °F 86% 30.11 in 2.5 mi NW 9.2 mph - N/A Snow Light Snow
5:15 PM 17.6 °F 6.4 °F 12.2 °F 79% 30.12 in 7.0 mi North 9.2 mph 17.3 mph N/A Snow Light Snow
5:35 PM 15.8 °F 4.2 °F 12.2 °F 86% 30.14 in 1.8 mi NW 9.2 mph - N/A Snow Light Snow
5:55 PM 14.0 °F 5.1 °F 10.4 °F 86% 30.15 in 3.0 mi NNW 5.8 mph - N/A Snow Light Snow
6:15 PM 14.0 °F 5.1 °F 10.4 °F 86% 30.16 in 10.0 mi NNW 5.8 mph - N/A   Overcast
6:35 PM 14.0 °F 6.5 °F 10.4 °F 86% 30.18 in 3.0 mi NW 4.6 mph - N/A Snow Light Snow
6:55 PM 14.0 °F 6.5 °F 10.4 °F 86% 30.19 in 2.0 mi NNW 4.6 mph - N/A Snow Light Snow
7:15 PM 14.0 °F 5.1 °F 10.4 °F 86% 30.19 in 1.5 mi WNW 5.8 mph - N/A Snow Light Snow
7:35 PM 14.0 °F - 10.4 °F 86% 30.20 in 1.5 mi Calm Calm - N/A Snow Light Snow
7:55 PM 14.0 °F - 10.4 °F 86% 30.21 in 1.2 mi North - - N/A Snow Light Snow
8:15 PM 12.2 °F 6.1 °F 8.6 °F 85% 30.22 in 1.2 mi West 3.5 mph - N/A Snow Light Snow
8:35 PM 12.2 °F 4.3 °F 8.6 °F 85% 30.22 in 1.5 mi North 4.6 mph - N/A Snow Light Snow
8:55 PM 10.4 °F - 6.8 °F 85% 30.22 in 1.5 mi Calm Calm - N/A Snow Light Snow
9:15 PM 10.4 °F - 6.8 °F 85% 30.23 in 1.0 mi Calm Calm - N/A Snow Light Snow
9:35 PM 8.6 °F - 5.0 °F 85% 30.23 in 1.0 mi Calm Calm - N/A Snow Light Snow
9:55 PM 5.0 °F - 3.2 °F 92% 30.23 in 5.0 mi North - - N/A Snow Light Snow
10:15 PM 6.8 °F -0.1 °F 3.2 °F 85% 30.24 in 1.8 mi SSW 3.5 mph - N/A Snow Light Snow
10:35 PM 8.6 °F 0.1 °F 5.0 °F 85% 30.24 in 7.0 mi SSW 4.6 mph - N/A Snow Light Snow
10:55 PM 10.4 °F 0.8 °F 6.8 °F 85% 30.24 in 10.0 mi SW 5.8 mph - N/A   Overcast
11:15 PM 10.4 °F - 6.8 °F 85% 30.24 in 10.0 mi North - - N/A Snow Light Snow
11:35 PM 10.4 °F - 6.8 °F 85% 30.24 in 10.0 mi North - - N/A Snow Light Snow
11:55 PM 10.4 °F - 8.6 °F 92% 30.24 in 10.0 mi North - - N/A Snow Light Snow